Location: Sungai Kamana Besar
(2.6333°N, 113.4333°E)
Time: 05:41:41
(UTC+00:00)

Cosmos 2058 - Pass Details

Date: 29 May 2022
Orbit: 560 x 580 km, 82.5° (Epoch: 24 June)

Event Time Altitude Azimuth Distance (km) Brightness Sun altitude
Exits shadow 20:26:58 57° 34° (NE) 661 3.3 -25.8°
Drops below altitude 10° 20:30:21 10° 9° (N) 1,851 5.9 -25.1°
Sets 20:32:31 0° 7° (N) 2,748 6.8 -24.6°
